Regional Weather Roundup
Issued by NWS Jackson, KY

Home | Current Version | Previous Version | Text Only | Print | Product List | Glossary On
Versions: 1 2 3 4 5 6 7 8 9 10 11 12 13 14 15 16 17 18 19 20 21 22 23 24 25 26 27 28 29 30 31 32 33 34 35 36 37 38 39 40 41 42 43 44 45 46 47 48 49
870
ASUS43 KJKL 240910
RWRJKL

EAST KENTUCKY HOURLY WEATHER ROUNDUP
NATIONAL WEATHER SERVICE JACKSON KY
500 AM EDT TUE MAY 24 2016

NOTE: "FAIR" INDICATES FEW OR NO CLOUDS BELOW 12,000 FEET WITH
NO SIGNIFICANT WEATHER AND/OR OBSTRUCTIONS TO VISIBILITY.

* THESE REPORTS ARE NOT UNDER NWS QUALITY CONTROL AND MAY NOT
  REPORT WEATHER SUCH AS PRECIPITATION AND FOG.

KYZ079-080-083-085-087-088-110-112-115-119-120-241000
...EASTERN KENTUCKY...

CITY           SKY/WX    TMP DP  RH WIND       PRES   REMARKS
JACKSON        CLEAR     55  49  80 CALM      30.07R
LONDON         CLEAR     50  47  89 CALM      30.06R
SOMERSET*      CLEAR     48  48 100 CALM      30.08R
MONTICELLO*    CLEAR     49  48  97 W13       30.08R
WILLIAMSBURG*  SUNNY     52  52 100 SE3       30.07R
MIDDLESBORO*   CLEAR     48  48 100 CALM      30.10R
HARLAN APT*      N/A     50  46  87 CALM      30.09S
HAZARD APT*    SUNNY     52  52 100 CALM      30.08R
BLACK MTN*       N/A     52  46  82 S5          N/A
PIKE CO APT*     N/A     53  52  95 CALM      30.08R
BIG SANDY APT* SUNNY     54  52  95 CALM      30.07R
MOREHEAD APT*  SUNNY     52  50  93 SW3       30.08R
ASHLAND*       CLEAR     52  48  87 CALM      30.04R
$$

KYZ035-036-041-042-044-050-067-078-099-241000
...CENTRAL KENTUCKY...

CITY           SKY/WX    TMP DP  RH WIND       PRES   REMARKS
MT STERLING*   CLEAR     50  50 100 CALM      30.07R
FLEMING/MASON* CLEAR     53  51  92 CALM      30.07R
DANVILLE*      CLEAR     50  48  93 CALM      30.06R
RICHMOND*      CLEAR     50  48  93 CALM      30.05S
LEXINGTON      CLEAR     56  49  77 SE7       30.05R
FRANKFORT      CLEAR     50  47  89 CALM      30.03R
LOUISVILLE     PTCLDY    59  50  72 NW3       30.05R
LEBANON*         N/A     52  48  87 SW5       30.06R
GLASGOW*       CLEAR     49  49 100 CALM      30.05R
BOWLING GREEN  CLEAR     52  50  93 CALM      30.04R
$$

KYZ091>093-OHZ055-061-077-WVZ005-015-034-035-042-241000
...SOUTHERN OHIO/WEST VIRGINIA...

CITY           SKY/WX    TMP DP  RH WIND       PRES   REMARKS
COVINGTON      CLEAR     52  50  93 CALM      30.04R
COLUMBUS       CLEAR     52  50  93 CALM      30.04R
DAYTON         CLEAR     56  47  71 SW6       30.05R
WILMINGTON     CLEAR     53  50  89 S3        30.05R
HUNTINGTON       N/A     52  49  89 CALM      30.05R
CHARLESTON       N/A     51  50  96 CALM      30.06R FOG
PINEVILLE*     FOG       50  47  91 MISG      30.14R VSB 1/4
BECKLEY          N/A     47  46  97 SE3       30.10R
BLUEFIELD        N/A     50  46  86 CALM      30.11R
LOGAN CO APT*    N/A     54  52  94 CALM      30.07R
$$

VAZ002-007-008-TNZ017-027-036-066-071-241000
...SOUTHWEST VIRGINIA/EAST TENNESSEE...

CITY           SKY/WX    TMP DP  RH WIND       PRES   REMARKS
WISE*            N/A     50  46  87 S3        30.12S
JONESVILLE*      N/A     46  46 100 CALM      30.11S
ABINGDON*        N/A     49  49  97 CALM      30.11R
BRISTOL        CLEAR     48  47  96 CALM      30.10R
SEVIERVILLE*   SUNNY     48  46  93 VRB3      30.07R
OAK RIDGE      CLEAR     53  50  89 CALM      30.09R
CROSSVILLE     CLEAR     50  45  83 CALM      30.09R
NASHVILLE      PTCLDY    58  52  80 CALM      30.04R
$$

...KEY TO REMARKS...
VSB - VISIBILITY IN MILES
WCI - WIND CHILL INDEX
HX  - HEAT INDEX

$$




USA.gov is the U.S. government's official web portal to all federal, state and local government web resources and services.